This is the latest recevied weather packets stored in our database for station/object KO5MO-3. If no packets are shown the sender has not sent any weather packets the latest 10 day(s).
| Time | Temp. | Humidity | Pressure | Rain* | Wind** | Luminosity | Snow |
|---|---|---|---|---|---|---|---|
| 1777248380 | 24.44° C | 33% | 1007.1 hPa | 0 mm | - | - | - |
| 1777248080 | 25° C | 33% | 1007.1 hPa | 0 mm | - | - | - |
| 1777247780 | 24.44° C | 33% | 1007.1 hPa | 0 mm | - | - | - |
| 1777247480 | 24.44° C | 33% | 1007.1 hPa | 0 mm | - | - | - |
| 1777247180 | 23.89° C | 33% | 1007.1 hPa | 0 mm | - | - | - |
| 1777247132 | 23.89° C | 33% | 1007.2 hPa | 0 mm | - | - | - |
| 1777246832 | 25° C | 33% | 1007.1 hPa | 0 mm | - | - | - |
| 1777246532 | 24.44° C | 33% | 1007 hPa | 0 mm | - | - | - |
| 1777246232 | 24.44° C | 33% | 1007.1 hPa | 0 mm | - | - | - |
| 1777245932 | 25° C | 32% | 1007 hPa | 0 mm | - | - | - |
| 1777245632 | 24.44° C | 33% | 1006.9 hPa | 0 mm | - | - | - |
| 1777245332 | 24.44° C | 33% | 1006.9 hPa | 0 mm | - | - | - |
| 1777245032 | 25° C | 32% | 1006.9 hPa | 0 mm | - | - | - |
| 1777244732 | 24.44° C | 33% | 1006.9 hPa | 0 mm | - | - | - |
| 1777244560 | 23.33° C | 34% | 1006.8 hPa | 0 mm | - | - | - |
| 1777244260 | 24.44° C | 33% | 1007 hPa | 0 mm | - | - | - |
| 1777243960 | 24.44° C | 33% | 1006.8 hPa | 0 mm | - | - | - |
| 1777243660 | 24.44° C | 33% | 1006.8 hPa | 0 mm | - | - | - |
| 1777243360 | 25° C | 33% | 1006.8 hPa | 0 mm | - | - | - |
| 1777243060 | 23.89° C | 33% | 1006.8 hPa | 0 mm | - | - | - |
| 1777242760 | 24.44° C | 33% | 1006.8 hPa | 0 mm | - | - | - |
| 1777242460 | 25° C | 32% | 1006.8 hPa | 0 mm | - | - | - |
| 1777242160 | 25.56° C | 31% | 1006.8 hPa | 0 mm | - | - | - |
| 1777241860 | 26.11° C | 30% | 1006.8 hPa | 0 mm | - | - | - |
| 1777241560 | 25.56° C | 31% | 1006.7 hPa | 0 mm | - | - | - |
* Rain latest hour (hover to see other rain measurements)
** Current wind speed in m/s (hover to see current wind gust speed)